{"data":{"norad_id":53242,"intl_designator":"2022-086A","name":"STARLINK-4056","alt_names":[],"object_type":"PAYLOAD","status":"ACTIVE","operator":null,"country":"US","launch_date":"2022-07-24","launch_site_code":"AFETR","launch_vehicle":null,"mission":null,"orbit_class":"UNKNOWN","rcs_meters":null,"size_class":null,"mass_kg":null,"dimensions":null,"purposes":["comms"],"wikipedia_slug":null,"has_3d_model":false,"image_url":null,"decayed_at":null,"tle_current":{"epoch":"2026-05-25T05:03:43.838784Z","epoch_age_seconds":56852,"freshness":"FRESH","line1":"1 53242U 22086A   26145.21092406  .00000148  00000+0  27361-4 0  9991","line2":"2 53242  53.2129 215.5914 0000971  92.3401 267.7703 15.08837511212863","mean_motion":15.08837511,"eccentricity":9.71e-5,"inclination_deg":53.2129,"raan_deg":215.5914,"arg_perigee_deg":92.3401,"mean_anomaly_deg":267.7703,"bstar":2.7361e-5,"rev_number":21286,"period_min":95.437712112925,"perigee_km":539.07926992733,"apogee_km":540.42272377632,"semimajor_km":6917.8879968518,"source":"CELESTRAK","updated_at":"2026-05-25T13:38:17.359493Z"}}}